Location: Alincthun
(50.7310°N, 1.8022°E)
Time: 15:28:22
(UTC+00:00)

FENGYUN 3A - Pass Details

Date: 17 February 2020
Orbit: 824 x 836 km, 98.4° (Epoch: 27 March)

Event Time Altitude Azimuth Distance (km) Brightness Sun altitude
Rises 04:48:31 0° 17° (NNE) 3,397 7.2 -21.8°
Reaches altitude 10° 04:50:57 10° 23° (NNE) 2,459 6.5 -21.4°
Maximum altitude 04:56:17 52° 100° (E) 1,035 4.5 -20.5°
Drops below altitude 10° 05:01:34 10° 176° (S) 2,443 6.1 -19.7°
Sets 05:03:58 0° 181° (S) 3,372 6.8 -19.3°
